Regional Weather Roundup
Issued by NWS

Home | Current Version | Previous Version | Graphics & Text | Print | Product List | Glossary On
Versions: 1 2 3 4 5 6 7 8 9 10 11 12 13 14 15 16 17 18 19 20 21 22 23 24 25 26 27 28 29 30 31 32 33 34 35 36 37 38 39 40 41 42 43 44 45 46 47 48 49 50
842
ASUS44 KLIX 272211
RWRLA
LOUISIANA WEATHER ROUNDUP
NATIONAL WEATHER SERVICE NEW ORLEANS LA
500 PM CDT FRI MAR 27 2015

NOTE: "FAIR" INDICATES FEW OR NO CLOUDS BELOW 12,000 FEET WITH NO
      SIGNIFICANT WEATHER AND/OR OBSTRUCTIONS TO VISIBILITY.
      SKY/WX - SKY CONDITION AND SIGNIFICANT WEATHER.
      TMP - AIR TEMPERATURE.    DP   - DEWPOINT TEMPERATURE.
      RH  - RELATIVE HUMIDITY.  PRES - PRESSURE.
      HX  - HEAT INDEX.         WCI  - WIND CHILL INDEX.

*  THESE STATIONS ARE NOT NWS OR FAA STATIONS AND ARE NOT UNDER
   NWS QUALITY CONTROL.

LAZ040-048-061>063-065-066-069-272300-
SOUTHEAST LOUISIANA

CITY           SKY/WX    TMP DP  RH WIND       PRES   REMARKS
N.O. AUDUBON     N/A     70 N/A N/A MISG        N/A
N.O. INTL ARPT MOSUNNY   69  37  30 NW14      30.01S
N.O. LAKEFRONT SUNNY     70  43  37 W15       30.01S
SLIDELL        SUNNY     70  35  27 NW13G22   29.99S
BATON ROUGE    SUNNY     68  39  34 W12G20    30.02F
BOOTHVILLE     SUNNY     66  38  35 NW14      30.02F
BELLE CHASSE   MOSUNNY   69  33  26 NW9G18    30.00S
BOGALUSA*        N/A     70  32  24 NW16G25   30.01S
GALLIANO*      CLEAR     72  34  25 NW14G22   30.02S
NEW ROADS*     FAIR      69  40  34 NW12      30.02F
GONZALES*      FAIR      69  40  34 NW8G16    30.03S
HAMMOND*       SUNNY     72  32  23 NW18G28   30.02R
HOUMA*         NOT AVBL
PORT FOURCHON* CLEAR     68  39  34 W12G18    30.06F

$$

LAZ041-044-053-054-272300-
SOUTHWEST LOUISIANA

CITY           SKY/WX    TMP DP  RH WIND       PRES   REMARKS
LAKE CHARLES   SUNNY     75  38  26 NW13G20   30.04F
LAFAYETTE      SUNNY     72  40  31 NW15G22   30.02F
PATTERSON      SUNNY     70  41  35 N12       30.04S
SALT POINT       N/A     66  50  56 VRB6      30.03F
NEW IBERIA     SUNNY     73  42  32 NW14      30.04F
CHENAULT AIRPK SUNNY     75  39  27 NW16G26   30.05F

$$

LAZ027-028-272300-
CENTRAL LOUISIANA

CITY           SKY/WX    TMP DP  RH WIND       PRES   REMARKS
FORT POLK      SUNNY     73  38  28 NW18G25   30.02F
ALEXANDRIA INT SUNNY     71  38  29 NW21G32   30.01S
ALEXANDRIA     SUNNY     71  37  28 W16G25    30.01F

$$

LAZ001-002-272300-
NORTHWEST LOUISIANA

CITY           SKY/WX    TMP DP  RH WIND       PRES   REMARKS
SHREVEPORT     MOSUNNY   67  37  33 N16G26    30.08S
BARKSDALE AFB  SUNNY     67  33  29 N20       30.08S
DTN SHREVEPORT SUNNY     65  34  31 NW13      30.08F

$$

LAZ014-016-272300-
NORTHEAST LOUISIANA

CITY           SKY/WX    TMP DP  RH WIND       PRES   REMARKS
MONROE         SUNNY     65  39  38 N17G24    30.06R
TALLULAH       MOSUNNY   60  40  47 NE13      30.06S

$$




USA.gov is the U.S. government's official web portal to all federal, state and local government web resources and services.